Flag for U.S.A. Weather past 2 weeks in Coeur d'Alene, Idaho, U.S.A.

Now
61 °F

Cloudy.


Feels Like: 61 °F
Forecast: 50 / 69 °F
Wind: No wind

Location: Coeur d'Alene Weather Reporting System

Current Time: May 25, 2015 at 7:03:17 PM

Latest Report: May 25, 2015 at 6:35 PM


Visibility: 10 mi

Pressure: 29.85 "Hg

Humidity: 72%

Dew point: 52 °F

Location of Coeur d'AleneLocation

Historic Weather in Coeur d'Alene — Graph

°F

Coeur d'Alene temperature yesterday

Maximum temperature yesterday: 81 °F (at 3:15 PM)
Minimum temperature yesterday: 50 °F (at 5:15 AM)
Average temperature yesterday: 66 °F

Past Weeks' High & Low Weather Summary

 TemperatureHumidityPressure
High82 °F (May 21, 3:15 PM)100% (May 14, 4:35 AM)30.15 "Hg (May 14, 4:35 AM)
Low41 °F (May 14, 4:35 AM)11% (May 20, 8:15 AM)29.65 "Hg (May 15, 3:15 PM)
Average60 °F55%29.91 "Hg
* Reported May 10 5:15 PM — May 25 5:55 PM, Coeur d'Alene, Weather by CustomWeather, © 2015

Note: Actual official high and low records may vary slightly from our data, if they occured in-between our weather recording intervals... More about our weather records

Advertising

Coeur d'Alene weather history for previous 24 hours

 ConditionsComfort  
Time TempWeatherWind HumidityBarometerVisibility
5:55 PM
Mon, May 25
63 °FSunny.7 mph64%29.87 "Hg10 mi
5:35 PM63 °FSunny.10 mph59%29.87 "Hg10 mi
5:15 PM64 °FSunny.12 mph56%29.86 "Hg10 mi
4:55 PM66 °FSunny.8 mph56%29.87 "Hg10 mi
4:35 PM66 °FSunny.6 mph56%29.87 "Hg10 mi
4:15 PM64 °FSunny.6 mph56%29.87 "Hg10 mi
3:55 PM64 °FSunny.6 mph56%29.87 "Hg10 mi
3:35 PM66 °FPassing clouds.7 mph60%29.88 "Hg10 mi
3:15 PM66 °FSunny.7 mph56%29.88 "Hg10 mi
2:55 PM66 °FScattered clouds.7 mph60%29.88 "Hg10 mi
2:35 PM64 °FBroken clouds.5 mph60%29.89 "Hg10 mi
2:15 PM64 °FMostly cloudy.8 mph64%29.89 "Hg10 mi
1:35 PM61 °FMostly cloudy.3 mph68%29.89 "Hg10 mi
1:15 PM61 °FCloudy.5 mph68%29.90 "Hg10 mi
12:55 PM61 °FMostly cloudy.6 mph68%29.90 "Hg10 mi
12:35 PM61 °FMostly cloudy.9 mph72%29.90 "Hg10 mi
12:15 PM63 °FOvercast.9 mph68%29.90 "Hg10 mi
11:55 AM61 °FMostly cloudy.9 mph72%29.90 "Hg10 mi
11:35 AM61 °FPartly sunny.9 mph72%29.90 "Hg10 mi
11:15 AM61 °FScattered clouds.7 mph72%29.90 "Hg10 mi
10:55 AM59 °FOvercast.10 mph77%29.90 "Hg10 mi
10:35 AM57 °FOvercast.10 mph77%29.90 "Hg10 mi
10:15 AM57 °FMostly cloudy.9 mph77%29.90 "Hg10 mi
9:55 AM57 °FOvercast.12 mph82%29.90 "Hg10 mi
9:35 AM57 °FOvercast.12 mph82%29.90 "Hg10 mi
9:15 AM57 °FOvercast.12 mph82%29.90 "Hg10 mi
8:55 AM55 °FOvercast.10 mph88%29.90 "Hg10 mi
8:35 AM55 °FOvercast.9 mph82%29.90 "Hg10 mi
8:15 AM55 °FOvercast.8 mph82%29.89 "Hg10 mi
7:55 AM55 °FOvercast.10 mph82%29.88 "Hg10 mi
7:35 AM55 °FMostly cloudy.7 mph82%29.88 "Hg10 mi
7:15 AM55 °FBroken clouds.6 mph82%29.88 "Hg10 mi
6:55 AM54 °FMostly cloudy.10 mph82%29.88 "Hg10 mi
6:35 AM54 °FOvercast.10 mph88%29.88 "Hg10 mi
5:55 AM55 °FOvercast.14 mph82%29.86 "Hg10 mi
5:35 AM55 °FOvercast.14 mph82%29.87 "Hg10 mi
5:15 AM55 °FThundershowers. Overcast.8 mph82%29.88 "Hg10 mi
4:55 AM55 °FThundershowers. Overcast.9 mph82%29.88 "Hg10 mi
4:35 AM55 °FThunderstorms. Mostly cloudy.6 mph82%29.87 "Hg10 mi
4:15 AM55 °FMostly cloudy.10 mph82%29.84 "Hg10 mi
3:55 AM55 °FPassing clouds.8 mph82%29.84 "Hg10 mi
3:35 AM55 °FPassing clouds.9 mph82%29.83 "Hg10 mi
3:15 AM54 °FPassing clouds.9 mph88%29.84 "Hg10 mi
2:55 AM55 °FPassing clouds.8 mph82%29.84 "Hg10 mi
2:35 AM55 °FPassing clouds.6 mph82%29.84 "Hg10 mi
2:15 AM55 °FPassing clouds.7 mph82%29.85 "Hg10 mi
1:55 AM55 °FThundershowers. Passing clouds.10 mph82%29.85 "Hg10 mi
1:35 AM57 °FMostly cloudy.12 mph77%29.86 "Hg10 mi
1:15 AM57 °FMostly cloudy.15 mph82%29.85 "Hg10 mi
12:55 AM57 °FPassing clouds.15 mph82%29.87 "Hg10 mi
12:35 AM57 °FPartly cloudy.13 mph88%29.86 "Hg10 mi
12:15 AM61 °FOvercast.12 mph63%29.88 "Hg10 mi
11:55 PM
Sun, May 24
61 °FThundershowers. Overcast.7 mph59%29.87 "Hg10 mi
11:35 PM59 °FThundershowers. Passing clouds.7 mph63%29.87 "Hg10 mi
11:15 PM61 °FPassing clouds.No wind63%29.86 "Hg10 mi
10:55 PM61 °FPassing clouds.8 mph63%29.85 "Hg10 mi
10:35 PM63 °FPassing clouds.7 mph59%29.85 "Hg10 mi
10:15 PM63 °FPassing clouds.3 mph59%29.85 "Hg10 mi
9:55 PM63 °FPartly cloudy.No wind59%29.84 "Hg10 mi
9:35 PM64 °FPassing clouds.9 mph49%29.83 "Hg10 mi
8:55 PM66 °FPassing clouds.6 mph43%29.83 "Hg10 mi
8:35 PM68 °FThundershowers. Scattered clouds.5 mph40%29.83 "Hg10 mi
8:15 PM70 °FBroken clouds.7 mph40%29.82 "Hg10 mi
7:55 PM68 °FPartly sunny.9 mph49%29.82 "Hg10 mi
7:35 PM70 °FSunny.3 mph43%29.81 "Hg10 mi
7:15 PM72 °FSunny.6 mph41%29.82 "Hg10 mi
Weather by CustomWeather, © 2015

See weather overviewHow to use our weather pages